AirNav   ATP
 
 1616 users online  

A61 Tuntutuliak Airport
Tuntutuliak, Alaska, USA

GOING TO TUNTUTULIAK?


FAA INFORMATION EFFECTIVE 19 JULY 2018

Location

FAA Identifier: A61
Lat/Long: 60-21-05.8000N / 162-39-14.3000W
60-21.096667N / 162-39.238333W
60.3516111 / -162.6539722
(estimated)
Elevation: 16 ft. / 5 m (estimated)
Variation: 18E (1985)
From city: 1 mile NE of TUNTUTULIAK, AK
Time zone: UTC -8 (UTC -9 during Standard Time)
Zip code: 99680

Airport Operations

Airport use: Open to the public
Activation date: 08/1974
Control tower: no
ARTCC: ANCHORAGE CENTER
FSS: KENAI FLIGHT SERVICE STATION [907-283-8469]
NOTAMs facility: ENA (NOTAM-D service available)
Attendance: UNATNDD
Wind indicator: lighted
Segmented circle: yes
Lights: ACTVT MIRL RY 02/20 - 122.7.
Beacon: white-green (lighted land airport)
Operates sunset to sunrise.

Airport Communications

CTAF: 122.7

Nearby radio navigation aids

VOR radial/distance  VOR name  Freq  Var
BETr209/35.7BETHEL VORTAC114.1014E

 
NDB name  Hdg/Dist  Freq  Var  ID
OSCARVILLE210/35.025111EOSE --- ... .

Airport Services

Airframe service: NONE
Powerplant service: NONE

Runway Information

Runway 2/20

Dimensions: 3025 x 90 ft. / 922 x 27 m
Surface: gravel, in good condition
Runway edge lights: medium intensity
Runway edge markings: RY 02/20 NSTD MKGS: RY ENDS MKD WITH CONES & REFLECTIVE MARKERS.
RUNWAY 2  RUNWAY 20
Traffic pattern: leftleft
Markings: NSTDNSTD
Runway end identifier lights: yes
Obstructions: 6 ft. brush, 36 ft. from runway, 65 ft. right of centerline, 6:1 slope to clear3 ft. brush, 5 ft. from runway, 68 ft. right of centerline, 1:1 slope to clear

Airport Ownership and Management from official FAA records

Ownership: Publicly-owned
Owner: ALASKA DOT&PF CENTRAL REGION
PO BOX 196900
ANCHORAGE, AK 99519-6900
Phone (907) 269-0749
Manager: LAWERENCE DAVIS
PO BOX 505
BETHEL, AK 99559
Phone (907) 543-2498

Airport Operational Statistics

Aircraft operations: avg 83/month *
100% air taxi
* for 12-month period ending 31 December 2016

Additional Remarks

MULTIPLE UNLIT WIND GENERATORS NEAR RIVER UP TO 120'.
WINDSOCKS MAY BE UNRELIABLE
RY CONDITION NOT MONITORED; RECOMMEND VISUAL INSPECTION PRIOR TO USE.
WX CAMERA AVBL ON INTERNET AT HTTP://AVCAMS.FAA.GOV
BIRDS ON INVOF RY.

Instrument Procedures

There are no published instrument procedures at A61.

Some nearby airports with instrument procedures:

PAEE - Eek Airport (20 nm SE)
PANA - Napakiak Airport (28 nm NE)
PFKA - Kasigluk Airport (32 nm N)
PAPK - Napaskiak Airport (33 nm NE)
PABE - Bethel Airport (35 nm NE)
 
Loc | Ops | Rwys | IFR | FBO | Links
Com | Nav | Svcs | Stats | Notes

Crowley
 
Area around A61 (Tuntutuliak Airport)
 
Road maps at: MapQuest Bing Google
 
Aerial photo
No photo
 
Sectional chart

 
Airport distance calculator
Flying to Tuntutuliak Airport? Find the distance to fly.

From to A61

Sunrise and sunset
Times for 14-Aug-2018
 Local
(UTC-8)
 Zulu
(UTC)
Morning civil twilight06:1014:10
Sunrise07:0215:02
Sunset22:4806:48
Evening civil twilight23:4107:41

Current date and time
Zulu (UTC)  14-Aug-2018 20:29:35
Local (UTC-8)  14-Aug-2018 12:29:35
 
METAR
PANA 
28nm NE 
141956Z AUTO 24018G24KT 10SM OVC019 11/07 A2983 RMK AO2 PK WND 24026/1944 SLP100 T01060072
PPIT 
34nm N 
141956Z AUTO 24021G28KT 10SM OVC016 11/08 A2979 RMK AO2 PK WND 25028/1951 SLP088 T01060083 TSNO
PABE 
36nm NE 
141953Z 24021G27KT 10SM OVC017 10/07 A2983 RMK AO2 PK WND 23030/1856 SLP102 T01000067
PFKW 
44nm NE 
141935Z AUTO 23020G26KT 10SM OVC015 10/07 A2982 RMK AO2 PK WND 24027/1908
PAKI 
48nm SW 
141956Z AUTO 26024KT 10SM OVC021 11/06 A2986 RMK AO2 PK WND 25030/1934 SLP113 T01060061 PNO $
TAF
PABE 
36nm NE 
141738Z 1418/1518 25020G28KT P6SM VCSH BKN010 TEMPO 1418/1421 4SM BR OVC010 FM142100 23022KT 4SM BR OVC007 FM142300 22015G20KT 5SM -RA BR OVC015 FM151400 29005KT P6SM OVC050
NOTAMs
Click for the latest NOTAMs
NOTAMs are issued by the DoD/FAA and will open in a separate window not controlled by AirNav.

 

 
 

Would you like to see your business listed on this page?

 If your business provides an interesting product or service to pilots, flight crews, aircraft, or users of the Tuntutuliak Airport, you should consider listing it here.  To start the listing process, click on the button below
 
Add a business
 

Other Pages about Tuntutuliak Airport

Update a link
 
Copyright © AirNav, LLC. All rights reserved. Privacy Policy  Contact